KAITUO 1B
1 40912U 15049P   19222.45074626  .00000955  00000-0  47878-4 0  9992
2 40912  97.4502 229.1194 0014872 354.5981 109.3362 15.19675364215324
TIANWANG 1C (TW-1C)
1 40926U 15051B   19222.39922454  .00009978  00000-0  14184-3 0  9991
2 40926  97.1319 268.5226 0008002 164.5132  27.1241 15.56545030218356
TIANWANG 1B (TW-1B)
1 40927U 15051C   19222.52525438  .00009149  00000-0  13819-3 0  9992
2 40927  97.1358 267.9123 0008352 174.4988 291.5855 15.54911881218229
TIANWANG 1A (TW-1A)
1 40928U 15051D   19222.55683395  .00002802  00000-0  69870-4 0  9991
2 40928  97.1433 252.6892 0009621 237.0450 251.7231 15.40998103217310
LAPAN A2
1 40931U 15052B   19221.07174769  .00001707  00000-0  14873-3 0  9997
2 40931   6.0008  50.2055 0014348 157.8753 120.4600 14.76619350208865
LQSAT
1 40958U 15057A   19221.73098775 -.00000022  00000-0  41961-5 0  9996
2 40958  97.8956 289.5138 0019550  75.8343 284.5035 14.73085574206467
CHUBUSAT 2
1 41338U 16012B   19222.18979874  .00000253  00000-0  12889-4 0  9990
2 41338  31.0024 171.1348 0013865 262.9111  96.9948 15.00164989190807
CHUBUSAT 3
1 41339U 16012C   19222.28621734  .00000247  00000-0  12413-4 0  9997
2 41339  31.0102 168.5479 0013862 270.9341  88.9723 15.00339567190810
OUFTI-1
1 41458U 16025C   19222.48228203  .00001583  00000-0  84028-4 0  9994
2 41458  98.1014 312.0126 0166410 179.1270 181.0279 15.05894984180513
E-STAR-2
1 41459U 16025D   19222.44484836  .00001846  00000-0  97628-4 0  9999
2 41459  98.1030 311.6056 0168147 180.7214 179.3794 15.05541624180482
AAUSAT 4
1 41460U 16025E   19222.48726879  .00001681  00000-0  87510-4 0  9997
2 41460  98.0952 313.0215 0158056 172.6684 187.6897 15.07446340180621
NUSAT 1
1 41557U 16033B   19222.52522741  .00000918  00000-0  37023-4 0  9996
2 41557  97.4176 309.7197 0015459 109.4135 250.8776 15.27293972178155
BEESAT 4
1 41619U 16040W   19222.13666714  .00000910  00000-0  41366-4 0  9996
2 41619  97.3639 283.3756 0010947 190.6376 169.4631 15.23211842161846
PRATHAM
1 41783U 16059A   19221.71525826  .00000029  00000-0  14851-4 0  9999
2 41783  98.0637 280.1385 0032755 218.5717 141.3145 14.63003012153152
ALSAT 1N
1 41789U 16059G   19222.41124857  .00000051  00000-0  18664-4 0  9993
2 41789  98.0670 282.9293 0027942 205.3191 154.6646 14.64254257153361
NAYIF 1
1 42017U 17008BX  19222.17062686  .00000979  00000-0  41345-4 0  9998
2 42017  97.3999 288.7176 0005939   1.0817 359.0432 15.25622579137926
MAX VALIER SAT
1 42778U 17036P   19222.12335701  .00000619  00000-0  30003-4 0  9999
2 42778  97.3506 278.6252 0013550  46.6162 313.6200 15.22076470118213
